contact:dominique.lefevre@mio.osupytheas.fr, maurice.libes@osupytheas.fr, didier.mallarino@osupytheas.fr
Project:EMSO http://www.emso-fr.org/EMSO-France
Depth: 2436.0 m
Title:EMSO Ligure Ouest : Data MII capteur CSTAR
DateTime,Latitude,Longitude,Instrument_Serial,Reference_Counts,Signal_Counts,Corrected_Signal_raw_counts,Calculated_Beam_c_inverse_meters,Internal_thermistor_counts
DateTime,Latitude,Longitude,Instrument_Serial,Reference_Counts,Signal_Counts,Corrected_Signal_raw_counts,Calculated_Beam_c_inverse_meters,Internal_thermistor_counts
2023-04-19T01:15:02,42.805,6.029,CST-1368DR,4350,4779,11668,01.166,556
2023-04-19T01:15:08,42.805,6.029,CST-1368DR,4334,4762,11670,01.165,556
2023-04-19T01:18:09,42.805,6.029,CST-1368DR,4350,4779,11668,01.166,552
2023-04-19T01:21:11,42.805,6.029,CST-1368DR,4350,4780,11671,01.165,552
2023-04-19T01:24:12,42.805,6.029,CST-1368DR,4350,4778,11666,01.166,552
2023-04-19T01:27:14,42.805,6.029,CST-1368DR,4350,4779,11668,01.166,551
2023-04-19T01:30:16,42.805,6.029,CST-1368DR,4350,4778,11667,01.166,551
2023-04-19T01:33:17,42.805,6.029,CST-1368DR,4349,4779,11671,01.165,551
2023-04-19T01:36:19,42.805,6.029,CST-1368DR,4349,4777,11666,01.166,551
2023-04-19T01:39:20,42.805,6.029,CST-1368DR,4349,4778,11669,01.165,551
2023-04-19T01:42:22,42.805,6.029,CST-1368DR,4349,4779,11671,01.165,552
2023-04-19T01:45:24,42.805,6.029,CST-1368DR,4348,4776,11667,01.166,551
2023-04-19T01:48:25,42.805,6.029,CST-1368DR,4348,4777,11669,01.165,551
2023-04-19T01:51:27,42.805,6.029,CST-1368DR,4348,4776,11667,01.166,551
2023-04-19T01:54:28,42.805,6.029,CST-1368DR,4348,4777,11669,01.165,552
2023-04-19T01:57:30,42.805,6.029,CST-1368DR,4347,4775,11666,01.166,551
2023-04-19T02:00:31,42.805,6.029,CST-1368DR,4347,4774,11664,01.167,551
2023-04-19T02:03:33,42.805,6.029,CST-1368DR,4347,4775,11666,01.166,551
2023-04-19T02:06:35,42.805,6.029,CST-1368DR,4347,4775,11668,01.166,551
2023-04-19T02:09:36,42.805,6.029,CST-1368DR,4347,4775,11667,01.166,551
2023-04-19T02:12:38,42.805,6.029,CST-1368DR,4346,4773,11664,01.167,551
2023-04-19T02:15:39,42.805,6.029,CST-1368DR,4346,4773,11666,01.166,551
2023-04-19T02:18:41,42.805,6.029,CST-1368DR,4346,4776,11672,01.164,551
2023-04-19T02:21:42,42.805,6.029,CST-1368DR,4346,4773,11666,01.166,551
2023-04-19T02:24:44,42.805,6.029,CST-1368DR,4346,4775,11669,01.165,551
2023-04-19T02:27:46,42.805,6.029,CST-1368DR,4345,4774,11670,01.165,551
2023-04-19T02:30:47,42.805,6.029,CST-1368DR,4345,4775,11673,01.164,552
2023-04-19T02:33:49,42.805,6.029,CST-1368DR,4345,4775,11672,01.164,551
2023-04-19T02:50:07,42.805,6.029,CST-1368DR,4339,4769,11673,01.164,555
2023-04-19T02:55:07,42.805,6.029,CST-1368DR,4342,4773,11674,01.164,553
2023-04-19T02:58:08,42.805,6.029,CST-1368DR,4343,4772,11670,01.165,552
2023-04-19T03:01:10,42.805,6.029,CST-1368DR,4343,4771,11668,01.166,552
2023-04-19T03:04:12,42.805,6.029,CST-1368DR,4343,4773,11671,01.165,551
2023-04-19T03:07:13,42.805,6.029,CST-1368DR,4343,4773,11671,01.165,552
2023-04-19T03:10:15,42.805,6.029,CST-1368DR,4343,4772,11670,01.165,551
2023-04-19T03:13:16,42.805,6.029,CST-1368DR,4343,4771,11668,01.166,551
2023-04-19T03:16:18,42.805,6.029,CST-1368DR,4343,4772,11670,01.165,551
2023-04-19T03:19:19,42.805,6.029,CST-1368DR,4343,4760,11640,01.175,551
2023-04-19T03:22:21,42.805,6.029,CST-1368DR,4343,4770,11665,01.167,551
2023-04-19T03:25:23,42.805,6.029,CST-1368DR,4343,4770,11666,01.166,551
2023-04-19T03:28:24,42.805,6.029,CST-1368DR,4343,4771,11667,01.166,551
2023-04-19T04:05:07,42.805,6.029,CST-1368DR,4341,4769,11668,01.166,552
2023-04-19T04:08:08,42.805,6.029,CST-1368DR,4341,4769,11667,01.166,552
2023-04-19T04:11:10,42.805,6.029,CST-1368DR,4342,4770,11667,01.166,552
2023-04-19T04:14:11,42.805,6.029,CST-1368DR,4342,4769,11666,01.166,551
2023-04-19T04:17:13,42.805,6.029,CST-1368DR,4342,4769,11666,01.166,552
2023-04-19T04:20:15,42.805,6.029,CST-1368DR,4342,4769,11666,01.166,551
2023-04-19T04:23:16,42.805,6.029,CST-1368DR,4342,4771,11670,01.165,551
2023-04-19T04:26:18,42.805,6.029,CST-1368DR,4341,4770,11671,01.165,551
2023-04-19T04:29:19,42.805,6.029,CST-1368DR,4341,4771,11672,01.164,551
2023-04-19T04:32:21,42.805,6.029,CST-1368DR,4341,4770,11671,01.165,551
2023-04-19T04:35:23,42.805,6.029,CST-1368DR,4341,4768,11665,01.167,551
2023-04-19T04:38:24,42.805,6.029,CST-1368DR,4341,4769,11669,01.165,552
2023-04-19T04:41:26,42.805,6.029,CST-1368DR,4341,4769,11668,01.166,551
2023-04-19T04:44:27,42.805,6.029,CST-1368DR,4341,4767,11663,01.167,551
2023-04-19T04:47:29,42.805,6.029,CST-1368DR,4341,4767,11663,01.167,551
2023-04-19T04:50:31,42.805,6.029,CST-1368DR,4341,4769,11668,01.166,551
2023-04-19T04:53:32,42.805,6.029,CST-1368DR,4341,4767,11662,01.168,551
2023-04-19T04:56:34,42.805,6.029,CST-1368DR,4341,4766,11661,01.168,551
2023-04-19T04:59:35,42.805,6.029,CST-1368DR,4340,4765,11661,01.168,551
2023-04-19T05:02:37,42.805,6.029,CST-1368DR,4340,4767,11665,01.167,552
2023-04-19T05:05:38,42.805,6.029,CST-1368DR,4340,4767,11666,01.166,551
2023-04-19T05:08:40,42.805,6.029,CST-1368DR,4340,4766,11664,01.167,551
2023-04-19T05:11:42,42.805,6.029,CST-1368DR,4340,4766,11663,01.167,551
2023-04-19T05:14:43,42.805,6.029,CST-1368DR,4340,4766,11662,01.168,551
2023-04-19T05:17:45,42.805,6.029,CST-1368DR,4340,4766,11663,01.167,551
2023-04-19T05:20:46,42.805,6.029,CST-1368DR,4340,4766,11663,01.167,551
2023-04-19T05:23:48,42.805,6.029,CST-1368DR,4339,4765,11663,01.167,552
2023-04-19T05:26:49,42.805,6.029,CST-1368DR,4339,4767,11668,01.166,551
2023-04-19T05:29:51,42.805,6.029,CST-1368DR,4339,4767,11669,01.165,551
2023-04-19T05:32:53,42.805,6.029,CST-1368DR,4339,4766,11666,01.166,551
2023-04-19T05:35:54,42.805,6.029,CST-1368DR,4339,4766,11665,01.167,551
2023-04-19T05:38:56,42.805,6.029,CST-1368DR,4339,4767,11668,01.166,551
2023-04-19T05:41:57,42.805,6.029,CST-1368DR,4339,4766,11665,01.167,551
2023-04-19T05:44:59,42.805,6.029,CST-1368DR,4339,4767,11668,01.166,552
2023-04-19T05:48:01,42.805,6.029,CST-1368DR,4339,4767,11667,01.166,552
2023-04-19T05:51:02,42.805,6.029,CST-1368DR,4339,4767,11668,01.166,551
2023-04-19T05:54:04,42.805,6.029,CST-1368DR,4339,4766,11665,01.167,552
2023-04-19T05:57:05,42.805,6.029,CST-1368DR,4339,4764,11662,01.168,551
2023-04-19T06:00:07,42.805,6.029,CST-1368DR,4339,4764,11662,01.168,551
2023-04-19T06:03:08,42.805,6.029,CST-1368DR,4339,4763,11659,01.169,551
2023-04-19T06:06:10,42.805,6.029,CST-1368DR,4338,4766,11668,01.166,551
2023-04-19T06:09:12,42.805,6.029,CST-1368DR,4338,4765,11667,01.166,551
2023-04-19T06:12:13,42.805,6.029,CST-1368DR,4338,4760,11653,01.171,551
2023-04-19T06:15:15,42.805,6.029,CST-1368DR,4338,4765,11667,01.166,551
2023-04-19T06:18:16,42.805,6.029,CST-1368DR,4338,4764,11662,01.168,551
2023-04-19T06:21:18,42.805,6.029,CST-1368DR,4338,4766,11667,01.166,552
2023-04-19T06:24:19,42.805,6.029,CST-1368DR,4338,4765,11665,01.167,551
2023-04-19T06:27:21,42.805,6.029,CST-1368DR,4338,4763,11660,01.169,551
2023-04-19T06:30:24,42.805,6.029,CST-1368DR,4338,4765,11665,01.167,551
2023-04-19T06:33:25,42.805,6.029,CST-1368DR,4338,4764,11662,01.168,552
2023-04-19T06:36:27,42.805,6.029,CST-1368DR,4338,4766,11667,01.166,551
2023-04-19T06:39:28,42.805,6.029,CST-1368DR,4338,4764,11663,01.167,552
2023-04-19T06:42:30,42.805,6.029,CST-1368DR,4337,4763,11663,01.167,551
2023-04-19T06:45:32,42.805,6.029,CST-1368DR,4337,4766,11670,01.165,551
2023-04-19T06:48:33,42.805,6.029,CST-1368DR,4337,4765,11669,01.165,551
2023-04-19T06:51:35,42.805,6.029,CST-1368DR,4337,4767,11672,01.164,551
2023-04-19T06:54:36,42.805,6.029,CST-1368DR,4337,4763,11662,01.168,551
2023-04-19T06:57:38,42.805,6.029,CST-1368DR,4337,4764,11667,01.166,551
2023-04-19T07:00:39,42.805,6.029,CST-1368DR,4337,4765,11669,01.165,551
2023-04-19T07:03:41,42.805,6.029,CST-1368DR,4337,4765,11667,01.166,551
2023-04-19T07:06:43,42.805,6.029,CST-1368DR,4337,4764,11667,01.166,551
2023-04-19T07:09:44,42.805,6.029,CST-1368DR,4337,4764,11667,01.166,551
2023-04-19T07:12:46,42.805,6.029,CST-1368DR,4337,4763,11662,01.168,552
2023-04-19T07:15:47,42.805,6.029,CST-1368DR,4337,4764,11667,01.166,551
2023-04-19T07:18:49,42.805,6.029,CST-1368DR,4337,4763,11664,01.167,551
2023-04-19T07:21:51,42.805,6.029,CST-1368DR,4337,4765,11669,01.165,551
2023-04-19T07:24:52,42.805,6.029,CST-1368DR,4337,4760,11656,01.170,551
2023-04-19T07:27:54,42.805,6.029,CST-1368DR,4337,4765,11669,01.165,551
2023-04-19T07:30:55,42.805,6.029,CST-1368DR,4336,4763,11665,01.167,551
2023-04-19T07:33:57,42.805,6.029,CST-1368DR,4336,4764,11669,01.165,551
2023-04-19T07:36:58,42.805,6.029,CST-1368DR,4336,4762,11664,01.167,550
2023-04-19T07:40:00,42.805,6.029,CST-1368DR,4336,4762,11664,01.167,552
2023-04-19T07:43:02,42.805,6.029,CST-1368DR,4336,4764,11669,01.165,552
2023-04-19T07:46:03,42.805,6.029,CST-1368DR,4336,4764,11668,01.166,551
2023-04-19T07:49:05,42.805,6.029,CST-1368DR,4336,4761,11661,01.168,551
2023-04-19T07:52:06,42.805,6.029,CST-1368DR,4336,4766,11672,01.164,551
2023-04-19T07:55:08,42.805,6.029,CST-1368DR,4336,4762,11664,01.167,551
2023-04-19T07:58:09,42.805,6.029,CST-1368DR,4336,4763,11665,01.167,551
2023-04-19T08:01:11,42.805,6.029,CST-1368DR,4336,4761,11660,01.169,551
2023-04-19T08:04:13,42.805,6.029,CST-1368DR,4336,4760,11660,01.169,552
2023-04-19T08:07:14,42.805,6.029,CST-1368DR,4336,4762,11663,01.167,551
2023-04-19T08:10:16,42.805,6.029,CST-1368DR,4336,4763,11665,01.167,551
2023-04-19T08:13:17,42.805,6.029,CST-1368DR,4336,4760,11658,01.169,551
2023-04-19T08:16:19,42.805,6.029,CST-1368DR,4336,4761,11660,01.169,551
2023-04-19T08:19:21,42.805,6.029,CST-1368DR,4336,4761,11662,01.168,551
2023-04-19T08:22:22,42.805,6.029,CST-1368DR,4335,4763,11668,01.166,551
2023-04-19T08:25:24,42.805,6.029,CST-1368DR,4335,4764,11670,01.165,551
2023-04-19T08:28:25,42.805,6.029,CST-1368DR,4335,4761,11663,01.167,551
2023-04-19T08:31:27,42.805,6.029,CST-1368DR,4335,4760,11662,01.168,551
2023-04-19T08:34:28,42.805,6.029,CST-1368DR,4335,4760,11661,01.168,551
2023-04-19T08:37:30,42.805,6.029,CST-1368DR,4335,4759,11659,01.169,552
2023-04-19T08:40:32,42.805,6.029,CST-1368DR,4335,4761,11663,01.167,551
2023-04-19T08:43:33,42.805,6.029,CST-1368DR,4335,4759,11658,01.169,551
2023-04-19T08:46:35,42.805,6.029,CST-1368DR,4335,4759,11660,01.169,551
2023-04-19T08:49:36,42.805,6.029,CST-1368DR,4335,4759,11660,01.169,551
2023-04-19T08:52:38,42.805,6.029,CST-1368DR,4335,4762,11666,01.166,551
2023-04-19T08:55:39,42.805,6.029,CST-1368DR,4335,4759,11658,01.169,551
2023-04-19T08:58:41,42.805,6.029,CST-1368DR,4335,4761,11663,01.167,551
2023-04-19T09:01:43,42.805,6.029,CST-1368DR,4335,4760,11661,01.168,551
2023-04-19T09:04:44,42.805,6.029,CST-1368DR,4335,4759,11659,01.169,551
2023-04-19T09:07:46,42.805,6.029,CST-1368DR,4335,4761,11665,01.167,551
2023-04-19T09:10:47,42.805,6.029,CST-1368DR,4335,4761,11663,01.167,552
2023-04-19T09:13:49,42.805,6.029,CST-1368DR,4334,4757,11657,01.170,552
2023-04-19T09:16:50,42.805,6.029,CST-1368DR,4334,4759,11660,01.169,551
2023-04-19T09:19:52,42.805,6.029,CST-1368DR,4334,4762,11668,01.166,551
2023-04-19T09:22:54,42.805,6.029,CST-1368DR,4334,4761,11666,01.166,551
2023-04-19T09:25:55,42.805,6.029,CST-1368DR,4334,4758,11659,01.169,551
2023-04-19T09:28:57,42.805,6.029,CST-1368DR,4334,4756,11655,01.170,551
2023-04-19T09:31:58,42.805,6.029,CST-1368DR,4334,4760,11663,01.167,551
2023-04-19T09:35:00,42.805,6.029,CST-1368DR,4334,4760,11664,01.167,551
2023-04-19T09:38:02,42.805,6.029,CST-1368DR,4334,4760,11664,01.167,551
2023-04-19T09:41:03,42.805,6.029,CST-1368DR,4334,4757,11657,01.170,552
2023-04-19T09:44:05,42.805,6.029,CST-1368DR,4334,4761,11667,01.166,551
2023-04-19T09:47:06,42.805,6.029,CST-1368DR,4334,4761,11665,01.167,551
2023-04-19T09:50:08,42.805,6.029,CST-1368DR,4334,4761,11666,01.166,552
2023-04-19T09:53:09,42.805,6.029,CST-1368DR,4334,4757,11656,01.170,551
2023-04-19T09:56:11,42.805,6.029,CST-1368DR,4334,4761,11666,01.166,552
2023-04-19T09:59:13,42.805,6.029,CST-1368DR,4334,4762,11669,01.165,551
2023-04-19T10:02:14,42.805,6.029,CST-1368DR,4334,4759,11660,01.169,552
2023-04-19T10:05:16,42.805,6.029,CST-1368DR,4334,4757,11657,01.170,551
2023-04-19T10:08:17,42.805,6.029,CST-1368DR,4334,4761,11665,01.167,551
2023-04-19T10:11:19,42.805,6.029,CST-1368DR,4334,4758,11660,01.169,552
2023-04-19T10:14:21,42.805,6.029,CST-1368DR,4334,4757,11657,01.170,551
2023-04-19T10:17:22,42.805,6.029,CST-1368DR,4334,4764,11675,01.163,551
2023-04-19T10:20:24,42.805,6.029,CST-1368DR,4333,4761,11669,01.165,551
2023-04-19T10:23:25,42.805,6.029,CST-1368DR,4333,4759,11665,01.167,551
2023-04-19T10:26:27,42.805,6.029,CST-1368DR,4333,4752,11648,01.173,551
2023-04-19T10:29:28,42.805,6.029,CST-1368DR,4333,4761,11669,01.165,552
2023-04-19T10:32:33,42.805,6.029,CST-1368DR,4333,4765,11680,01.162,551
2023-04-19T10:35:34,42.805,6.029,CST-1368DR,4333,4764,11676,01.163,552
2023-04-19T10:38:36,42.805,6.029,CST-1368DR,4333,4763,11675,01.163,551
2023-04-19T10:41:37,42.805,6.029,CST-1368DR,4333,4761,11669,01.165,551
2023-04-19T10:44:39,42.805,6.029,CST-1368DR,4333,4763,11675,01.163,551
2023-04-19T10:47:40,42.805,6.029,CST-1368DR,4333,4762,11671,01.165,551
2023-04-19T10:50:42,42.805,6.029,CST-1368DR,4333,4761,11669,01.165,552
2023-04-19T10:53:44,42.805,6.029,CST-1368DR,4333,4764,11676,01.163,551
2023-04-19T10:56:45,42.805,6.029,CST-1368DR,4333,4760,11667,01.166,551
2023-04-19T10:59:47,42.805,6.029,CST-1368DR,4333,4760,11666,01.166,551
2023-04-19T11:02:48,42.805,6.029,CST-1368DR,4333,4763,11674,01.164,551
2023-04-19T11:05:50,42.805,6.029,CST-1368DR,4333,4760,11667,01.166,551
2023-04-19T11:08:52,42.805,6.029,CST-1368DR,4333,4764,11675,01.163,551
2023-04-19T11:11:53,42.805,6.029,CST-1368DR,4333,4761,11669,01.165,551
2023-04-19T11:14:55,42.805,6.029,CST-1368DR,4333,4763,11675,01.163,551
2023-04-19T11:17:56,42.805,6.029,CST-1368DR,4333,4762,11671,01.165,551
2023-04-19T11:20:58,42.805,6.029,CST-1368DR,4333,4762,11672,01.164,552
2023-04-19T11:23:59,42.805,6.029,CST-1368DR,4333,4762,11671,01.165,551
2023-04-19T11:27:01,42.805,6.029,CST-1368DR,4333,4756,11657,01.170,551
2023-04-19T11:30:03,42.805,6.029,CST-1368DR,4332,4760,11669,01.165,551
2023-04-19T11:33:04,42.805,6.029,CST-1368DR,4332,4757,11661,01.168,552
2023-04-19T11:36:06,42.805,6.029,CST-1368DR,4332,4763,11677,01.163,551
2023-04-19T11:39:07,42.805,6.029,CST-1368DR,4332,4763,11675,01.163,551
2023-04-19T11:42:09,42.805,6.029,CST-1368DR,4332,4759,11667,01.166,551
2023-04-19T11:45:10,42.805,6.029,CST-1368DR,4332,4759,11666,01.166,551
2023-04-19T11:48:12,42.805,6.029,CST-1368DR,4332,4763,11676,01.163,551
2023-04-19T11:51:14,42.805,6.029,CST-1368DR,4332,4760,11669,01.165,551
2023-04-19T11:54:15,42.805,6.029,CST-1368DR,4332,4765,11680,01.162,551
2023-04-19T11:57:17,42.805,6.029,CST-1368DR,4332,4761,11672,01.164,552
2023-04-19T12:00:18,42.805,6.029,CST-1368DR,4332,4756,11659,01.169,551
2023-04-19T12:03:20,42.805,6.029,CST-1368DR,4332,4758,11664,01.167,551
2023-04-19T12:06:21,42.805,6.029,CST-1368DR,4332,4761,11671,01.165,551
2023-04-19T12:09:23,42.805,6.029,CST-1368DR,4332,4760,11669,01.165,551
2023-04-19T12:12:25,42.805,6.029,CST-1368DR,4332,4762,11675,01.163,551
2023-04-19T12:15:26,42.805,6.029,CST-1368DR,4332,4756,11659,01.169,551
2023-04-19T12:18:28,42.805,6.029,CST-1368DR,4332,4759,11667,01.166,551
2023-04-19T12:21:29,42.805,6.029,CST-1368DR,4332,4756,11659,01.169,551
2023-04-19T12:24:31,42.805,6.029,CST-1368DR,4332,4758,11663,01.167,551
2023-04-19T12:27:33,42.805,6.029,CST-1368DR,4332,4758,11663,01.167,552
2023-04-19T12:30:35,42.805,6.029,CST-1368DR,4332,4762,11675,01.163,552
2023-04-19T12:33:37,42.805,6.029,CST-1368DR,4332,4757,11662,01.168,551
2023-04-19T12:36:38,42.805,6.029,CST-1368DR,4332,4753,11651,01.172,551
2023-04-19T12:39:40,42.805,6.029,CST-1368DR,4332,4758,11665,01.167,551
2023-04-19T12:42:41,42.805,6.029,CST-1368DR,4332,4757,11662,01.168,551
2023-04-19T12:45:43,42.805,6.029,CST-1368DR,4332,4759,11667,01.166,551
2023-04-19T12:48:45,42.805,6.029,CST-1368DR,4332,4755,11658,01.169,551
2023-04-19T12:51:46,42.805,6.029,CST-1368DR,4332,4758,11664,01.167,551
2023-04-19T12:54:48,42.805,6.029,CST-1368DR,4332,4758,11663,01.167,551
2023-04-19T12:57:49,42.805,6.029,CST-1368DR,4331,4755,11660,01.169,551
2023-04-19T13:00:51,42.805,6.029,CST-1368DR,4331,4760,11671,01.165,552
2023-04-19T13:03:53,42.805,6.029,CST-1368DR,4331,4756,11661,01.168,551
2023-04-19T13:06:54,42.805,6.029,CST-1368DR,4331,4760,11671,01.165,551
2023-04-19T13:09:56,42.805,6.029,CST-1368DR,4331,4762,11677,01.163,551
2023-04-19T13:12:57,42.805,6.029,CST-1368DR,4331,4762,11677,01.163,551
2023-04-19T13:15:59,42.805,6.029,CST-1368DR,4331,4761,11673,01.164,551
2023-04-19T13:19:00,42.805,6.029,CST-1368DR,4331,4759,11670,01.165,551
2023-04-19T13:22:02,42.805,6.029,CST-1368DR,4331,4758,11668,01.166,551
2023-04-19T13:25:04,42.805,6.029,CST-1368DR,4331,4761,11674,01.164,552
2023-04-19T13:28:05,42.805,6.029,CST-1368DR,4331,4759,11669,01.165,551
2023-04-19T13:31:07,42.805,6.029,CST-1368DR,4331,4756,11661,01.168,551
2023-04-19T13:34:08,42.805,6.029,CST-1368DR,4331,4759,11668,01.166,551
2023-04-19T13:37:10,42.805,6.029,CST-1368DR,4331,4759,11669,01.165,551
2023-04-19T13:40:11,42.805,6.029,CST-1368DR,4331,4759,11668,01.166,551
2023-04-19T13:43:13,42.805,6.029,CST-1368DR,4331,4753,11655,01.170,551
2023-04-19T13:46:15,42.805,6.029,CST-1368DR,4331,4760,11671,01.165,551
2023-04-19T13:49:16,42.805,6.029,CST-1368DR,4331,4760,11671,01.165,551
2023-04-19T13:52:18,42.805,6.029,CST-1368DR,4331,4756,11663,01.167,551
2023-04-19T13:55:19,42.805,6.029,CST-1368DR,4331,4758,11666,01.166,551
2023-04-19T13:58:21,42.805,6.029,CST-1368DR,4331,4757,11663,01.167,551
2023-04-19T14:01:22,42.805,6.029,CST-1368DR,4331,4759,11669,01.165,551
2023-04-19T14:04:24,42.805,6.029,CST-1368DR,4331,4760,11671,01.165,551
2023-04-19T14:07:26,42.805,6.029,CST-1368DR,4331,4754,11656,01.170,552
2023-04-19T14:10:27,42.805,6.029,CST-1368DR,4331,4758,11666,01.166,551
2023-04-19T14:13:29,42.805,6.029,CST-1368DR,4331,4756,11662,01.168,552
2023-04-19T14:16:30,42.805,6.029,CST-1368DR,4331,4759,11669,01.165,551
2023-04-19T14:19:32,42.805,6.029,CST-1368DR,4331,4760,11672,01.164,551
2023-04-19T14:22:34,42.805,6.029,CST-1368DR,4331,4756,11662,01.168,552
2023-04-19T14:25:35,42.805,6.029,CST-1368DR,4330,4757,11667,01.166,551
2023-04-19T14:28:37,42.805,6.029,CST-1368DR,4330,4758,11669,01.165,551
2023-04-19T14:31:38,42.805,6.029,CST-1368DR,4331,4757,11664,01.167,551
2023-04-19T14:34:40,42.805,6.029,CST-1368DR,4330,4759,11671,01.165,551
2023-04-19T14:37:41,42.805,6.029,CST-1368DR,4330,4757,11666,01.166,551
2023-04-19T14:40:43,42.805,6.029,CST-1368DR,4330,4756,11664,01.167,551
2023-04-19T14:43:45,42.805,6.029,CST-1368DR,4330,4756,11663,01.167,552
2023-04-19T14:46:46,42.805,6.029,CST-1368DR,4330,4759,11673,01.164,551
2023-04-19T14:49:48,42.805,6.029,CST-1368DR,4330,4757,11667,01.166,551
2023-04-19T14:52:49,42.805,6.029,CST-1368DR,4330,4755,11662,01.168,551
2023-04-19T14:55:51,42.805,6.029,CST-1368DR,4330,4757,11666,01.166,551
2023-04-19T14:58:52,42.805,6.029,CST-1368DR,4330,4757,11666,01.166,552
2023-04-19T15:01:54,42.805,6.029,CST-1368DR,4330,4759,11673,01.164,551
2023-04-19T15:04:56,42.805,6.029,CST-1368DR,4330,4755,11661,01.168,551
2023-04-19T15:07:57,42.805,6.029,CST-1368DR,4330,4756,11664,01.167,552
2023-04-19T15:10:59,42.805,6.029,CST-1368DR,4330,4755,11661,01.168,552
2023-04-19T15:14:00,42.805,6.029,CST-1368DR,4330,4757,11667,01.166,551
2023-04-19T15:17:02,42.805,6.029,CST-1368DR,4330,4756,11663,01.167,551
2023-04-19T15:20:04,42.805,6.029,CST-1368DR,4330,4754,11660,01.169,551
2023-04-19T15:23:05,42.805,6.029,CST-1368DR,4330,4757,11668,01.166,551
2023-04-19T15:26:07,42.805,6.029,CST-1368DR,4330,4754,11660,01.169,551
2023-04-19T15:29:08,42.805,6.029,CST-1368DR,4330,4755,11662,01.168,552
2023-04-19T15:32:10,42.805,6.029,CST-1368DR,4330,4756,11663,01.167,551
2023-04-19T15:35:11,42.805,6.029,CST-1368DR,4330,4759,11671,01.165,551
2023-04-19T15:38:13,42.805,6.029,CST-1368DR,4330,4754,11659,01.169,551
2023-04-19T15:41:15,42.805,6.029,CST-1368DR,4330,4754,11660,01.169,551
2023-04-19T15:44:16,42.805,6.029,CST-1368DR,4330,4755,11662,01.168,552
2023-04-19T15:47:18,42.805,6.029,CST-1368DR,4330,4757,11667,01.166,551
2023-04-19T15:50:19,42.805,6.029,CST-1368DR,4330,4754,11658,01.169,552
2023-04-19T15:53:21,42.805,6.029,CST-1368DR,4330,4757,11666,01.166,551
2023-04-19T15:56:22,42.805,6.029,CST-1368DR,4330,4754,11660,01.169,552
2023-04-19T15:59:24,42.805,6.029,CST-1368DR,4330,4754,11660,01.169,551
2023-04-19T16:02:26,42.805,6.029,CST-1368DR,4330,4757,11666,01.166,551
2023-04-19T16:05:27,42.805,6.029,CST-1368DR,4330,4757,11666,01.166,551
2023-04-19T16:08:29,42.805,6.029,CST-1368DR,4330,4757,11668,01.166,551
2023-04-19T16:11:30,42.805,6.029,CST-1368DR,4330,4754,11658,01.169,551
2023-04-19T16:14:32,42.805,6.029,CST-1368DR,4329,4753,11659,01.169,552
2023-04-19T16:17:34,42.805,6.029,CST-1368DR,4330,4759,11671,01.165,551
2023-04-19T16:20:35,42.805,6.029,CST-1368DR,4329,4757,11670,01.165,551
2023-04-19T16:23:37,42.805,6.029,CST-1368DR,4329,4755,11665,01.167,551
2023-04-19T16:26:38,42.805,6.029,CST-1368DR,4329,4754,11663,01.167,551
2023-04-19T16:29:40,42.805,6.029,CST-1368DR,4329,4759,11675,01.163,551
2023-04-19T16:32:41,42.805,6.029,CST-1368DR,4329,4756,11667,01.166,551
2023-04-19T16:35:43,42.805,6.029,CST-1368DR,4329,4753,11659,01.169,551
2023-04-19T16:38:45,42.805,6.029,CST-1368DR,4329,4754,11662,01.168,551
2023-04-19T16:41:46,42.805,6.029,CST-1368DR,4329,4756,11667,01.166,551
2023-04-19T16:44:48,42.805,6.029,CST-1368DR,4329,4752,11658,01.169,551
2023-04-19T16:47:49,42.805,6.029,CST-1368DR,4329,4754,11662,01.168,551
2023-04-19T16:50:51,42.805,6.029,CST-1368DR,4329,4754,11662,01.168,551
2023-04-19T16:53:52,42.805,6.029,CST-1368DR,4329,4758,11673,01.164,551
2023-04-19T16:56:54,42.805,6.029,CST-1368DR,4329,4758,11673,01.164,552
2023-04-19T16:59:56,42.805,6.029,CST-1368DR,4329,4756,11666,01.166,551
2023-04-19T17:02:57,42.805,6.029,CST-1368DR,4329,4756,11666,01.166,551
2023-04-19T17:05:59,42.805,6.029,CST-1368DR,4329,4755,11665,01.167,551
2023-04-19T17:09:00,42.805,6.029,CST-1368DR,4329,4753,11659,01.169,551
2023-04-19T17:12:02,42.805,6.029,CST-1368DR,4329,4754,11661,01.168,551
2023-04-19T17:15:04,42.805,6.029,CST-1368DR,4329,4755,11665,01.167,551
2023-04-19T17:18:05,42.805,6.029,CST-1368DR,4329,4757,11670,01.165,551
2023-04-19T17:21:07,42.805,6.029,CST-1368DR,4329,4757,11670,01.165,551
2023-04-19T17:24:08,42.805,6.029,CST-1368DR,4329,4755,11665,01.167,551
2023-04-19T17:27:10,42.805,6.029,CST-1368DR,4329,4755,11665,01.167,551
2023-04-19T17:30:11,42.805,6.029,CST-1368DR,4329,4754,11661,01.168,551
2023-04-19T17:33:13,42.805,6.029,CST-1368DR,4329,4756,11668,01.166,551
2023-04-19T17:36:15,42.805,6.029,CST-1368DR,4329,4753,11660,01.169,551
2023-04-19T17:39:16,42.805,6.029,CST-1368DR,4329,4750,11653,01.171,552
2023-04-19T17:42:18,42.805,6.029,CST-1368DR,4329,4759,11673,01.164,552
2023-04-19T17:45:19,42.805,6.029,CST-1368DR,4329,4757,11670,01.165,551
2023-04-19T17:48:21,42.805,6.029,CST-1368DR,4329,4756,11668,01.166,551
2023-04-19T17:51:22,42.805,6.029,CST-1368DR,4329,4757,11668,01.166,551
2023-04-19T17:54:24,42.805,6.029,CST-1368DR,4329,4756,11666,01.166,551
2023-04-19T17:57:26,42.805,6.029,CST-1368DR,4329,4756,11666,01.166,552
2023-04-19T18:00:27,42.805,6.029,CST-1368DR,4329,4753,11659,01.169,551
2023-04-19T18:03:29,42.805,6.029,CST-1368DR,4329,4753,11659,01.169,551
2023-04-19T18:06:30,42.805,6.029,CST-1368DR,4329,4752,11657,01.170,551
2023-04-19T18:09:32,42.805,6.029,CST-1368DR,4329,4755,11664,01.167,552
2023-04-19T18:12:34,42.805,6.029,CST-1368DR,4329,4756,11667,01.166,551
2023-04-19T18:15:35,42.805,6.029,CST-1368DR,4329,4753,11660,01.169,551
2023-04-19T18:18:37,42.805,6.029,CST-1368DR,4329,4750,11652,01.171,551
2023-04-19T18:21:38,42.805,6.029,CST-1368DR,4329,4752,11658,01.169,551
2023-04-19T18:24:40,42.805,6.029,CST-1368DR,4329,4757,11669,01.165,551
2023-04-19T18:27:41,42.805,6.029,CST-1368DR,4329,4753,11659,01.169,551
2023-04-19T18:30:45,42.805,6.029,CST-1368DR,4329,4756,11667,01.166,551
2023-04-19T18:33:46,42.805,6.029,CST-1368DR,4329,4753,11659,01.169,552
2023-04-19T18:36:48,42.805,6.029,CST-1368DR,4329,4758,11671,01.165,552